Regional Weather Roundup
Issued by NWS

Home | Current Version | Previous Version | Graphics & Text | Print | Product List | Glossary On
Versions: 1 2 3 4 5 6 7 8 9 10 11 12 13 14 15 16 17 18 19 20 21 22 23 24 25 26 27 28 29 30 31 32 33 34 35 36 37 38 39 40 41 42 43 44 45 46 47 48 49 50
000
ASUS45 KABQ 250310
RWRNM
WEATHER ROUNDUP FOR NEW MEXICO
NATIONAL WEATHER SERVICE ALBUQUERQUE NM
800 PM MST WED DEC 24 2014

NOTE: "FAIR" MEANS FEW OR NO CLOUDS BELOW 12,000 FEET AGL WITH NO
       SIGNIFICANT WEATHER OR OBSTRUCTIONS TO VISION.

      THIS PRODUCT IS RELEASED AS TWO VERSIONS.  ONE VERSION NEAR
      THE TOP OF THE HOUR CONTAINING PRELIMINARY DATA FROM ALBUQUERQUE
      AND OTHER STATIONS.  A FINAL VERSION WITH ADDITIONAL DATA IS
      ISSUED ABOUT 10 MINUTES AFTER THE HOUR.

NMZ501-503-504-510>518-250400-
NORTHWEST PLATEAU/NORTHCENTRAL MOUNTAINS

CITY           SKY/WX    TMP DP  RH WIND       PRES   REMARKS
FARMINGTON     CLEAR     30  14  51 E8        29.89F WCI  22
LOS ALAMOS     CLOUDY    30  10  42 CALM      29.93F
SANTA FE       CLOUDY    23  16  74 NW3       29.92F
TAOS           CLOUDY    25   9  50 CALM      29.92F
ANGEL FIRE     FAIR      21   7  53 E6        29.87F WCI  14

$$
NMZ402-403-502-505>509-250400-
WESTCENTRAL MOUNTAINS/SOUTHWEST MOUNTAINS

CITY           SKY/WX    TMP DP  RH WIND       PRES   REMARKS
GALLUP         CLOUDY    31  18  58 CALM      29.92F
GRANTS         MOCLDY    29  11  47 S8        29.94F WCI  21
SILVER CITY    PTCLDY    32  12  43 N9        30.04F WCI  24

$$
NMZ407-409-411-412-250400-
SOUTHERN DESERTS

CITY           SKY/WX    TMP DP  RH WIND       PRES   REMARKS
LORDSBURG      FAIR      34  18  51 SW6       30.02F WCI  29
DEMING         PTCLDY    35   9  33 W5        30.02F WCI  31
LAS CRUCES     CLEAR     32   6  33 W3        30.04S
HOLLOMAN AFB   PTCLDY    30  12  47 E7        30.02S WCI  23
ALAMOGORDO     PTCLDY    32   9  37 E6        30.03S WCI  26
T OR C         PTCLDY    39   6  25 S6        29.99F WCI  35

$$
NMZ519>523-250400-
CENTRAL VALLEYS/CENTRAL HIGHLANDS

CITY           SKY/WX    TMP DP  RH WIND       PRES   REMARKS
ALBUQUERQUE    MOCLDY    31  13  47 E8        29.96F WCI  23
DOUBLE EAGLE   MOCLDY    27  12  54 CALM      29.95F
MORIARTY ARPT  FAIR      30  10  43 SW7       29.94F WCI  23
CLINES CORNERS MOCLDY    28  10  46 W15       29.89S WCI  16
BELEN          FAIR      32   8  37 SE3       29.96F
SOCORRO        FAIR      34   9  35 SE10      29.98F WCI  26

$$
NMZ524>526-539-540-250400-
SOUTHCENTRAL MOUNTAINS

CITY           SKY/WX    TMP DP  RH WIND       PRES   REMARKS
RUIDOSO        CLEAR     27   5  39 NW6       29.98R WCI  20

$$
NMZ527>531-250400-
NORTHEAST HIGHLANDS/NORTHEAST PLAINS

CITY           SKY/WX    TMP DP  RH WIND       PRES   REMARKS
LAS VEGAS      MOCLDY    27  14  58 S6        29.81F WCI  20
RATON          CLOUDY    22  11  62 CALM      29.76F
CLAYTON        PTCLDY    30  18  60 SW15      29.72F WCI  19

$$
NMZ532>537-250400-
EASTCENTRAL PLAINS

CITY           SKY/WX    TMP DP  RH WIND       PRES   REMARKS
TUCUMCARI      CLEAR     39  16  39 SW12      29.78F WCI  32
CANNON AFB     PTCLDY    29  19  65 SW9       29.86F WCI  20
CLOVIS AIRPORT PTCLDY    30  18  59 SW12      29.85F WCI  21

$$
NMZ028-029-538-250400-
SOUTHEAST PLAINS

CITY           SKY/WX    TMP DP  RH WIND       PRES   REMARKS
ROSWELL        CLEAR     32  18  56 S3        29.90F
ARTESIA        CLEAR     36  18  48 SW3       29.93F
CARLSBAD       CLEAR     43  19  38 W10       29.92F
HOBBS          PTCLDY    32  23  69 SW5       29.95S WCI  27


$$


USA.gov is the U.S. government's official web portal to all federal, state and local government web resources and services.